{"data":{"norad_id":52581,"epoch":"2026-05-25T02:45:57.078144Z","epoch_age_seconds":65834,"freshness":"FRESH","line1":"1 52581U 22051AX  26145.11524396  .00002184  00000+0  15521-3 0  9991","line2":"2 52581  53.2142 136.0322 0001257  89.1165 270.9971 15.08850172223124","mean_motion":15.08850172,"eccentricity":0.0001257,"inclination_deg":53.2142,"raan_deg":136.0322,"arg_perigee_deg":89.1165,"mean_anomaly_deg":270.9971,"bstar":0.00015521,"rev_number":22312,"period_min":95.436911280015,"perigee_km":538.84272374746,"apogee_km":540.58187106083,"semimajor_km":6917.8492974041,"source":"CELESTRAK","updated_at":"2026-05-25T13:38:17.194704Z"}}